{"data":{"norad_id":89055,"intl_designator":"","name":"UNKNOWN","alt_names":[],"object_type":"UNKNOWN","status":"UNKNOWN","operator":null,"country":null,"launch_date":null,"launch_site_code":null,"launch_vehicle":null,"mission":null,"orbit_class":"UNKNOWN","rcs_meters":null,"size_class":null,"mass_kg":null,"dimensions":null,"purposes":[],"wikipedia_slug":null,"has_3d_model":false,"image_url":null,"decayed_at":null,"tle_current":{"epoch":"2026-09-10T05:53:56.292288Z","epoch_age_seconds":903570,"freshness":"AGED","line1":"1 89055U          26253.24579042  .00000035  00000+0  57973-3 0  9999","line2":"2 89055 101.5830 259.0727 0031265  21.3392 338.8969 12.39650008579377","mean_motion":12.39650008,"eccentricity":0.0031265,"inclination_deg":101.583,"raan_deg":259.0727,"arg_perigee_deg":21.3392,"mean_anomaly_deg":338.8969,"bstar":0.00057973,"rev_number":57937,"period_min":116.16181911887,"perigee_km":1483.4308600329,"apogee_km":1532.7434195791,"semimajor_km":7886.224139806,"source":"CELESTRAK","updated_at":"2026-09-20T09:00:32.482028Z"}}}